Погода Ново-Иерусалим

Погода Ново-Иерусалим : погода сейчас, прогноз погоды и архив. Всё, что Вы хотите узнать о погоде Ново-Иерусалим!

Поиск расширенной информации на нашем сайте:

Другие новости

Новости СМИ2

Главная страница сайта

Новости сайта

03.07.2017

Напоминаем, что на нашем специализированном сайте Метеоцентр.Азия вы можете получить высокодетализированные автоматические прогнозы погоды по пунктам России, СНГ и мира в авиационном формате (включающие направление и скорость ветра, видимость, явления погоды, количество и форму облачности, нижнюю и верхнюю границу облачности).


Погода Ново-Иерусалим - сегодня

Время (UTC), дата Ветер
(°,м/с) 
Видим.   Явления Облачность Т
(°С)
Тd
(°С)
f(%) Тe
(°С)
Pmin
(гПа)
dP
(гПа)
Po
(мм)
O2
(г/м3)
Тmin Tmax R s Состояние
почвы
12 20.10.17 270 (З) 10 км    8/5 600 м кучево-дожд., верхняя 
[Cb calv|Ci fib]
+7.4 -1.7 52 +7  1020.9  -0.5  751  295           
15 20.10.17 тихо ()   10 км    9/9 600 м кучево-дожд. 
[Cb calv]
+4.7 +0.8 76 +5  1020.9  -0.2  751  297           
18 20.10.17 260 (З) 10 км    9/4 600 м средняя, верхняя 
[Sc|Ac trans|Ci fib]
+2.1 +1.1 93 +3  1021.1  751  300    +7.8       
21 20.10.17 290 (З) 10 км    10/10 600 м 
[Sc]
+2.4 +1.4 93 +3  1021.1  751  300           
00 21.10.17 250 (З) 10 км    10/10 600 м 
[Sc]
+1.9 +1.1 94 +3  1020.4  -0.7  750  300           
03 21.10.17 300 (СЗ) 10 км    10/10 600 м 
[Sc]
+2 +0.8 92 +1  1020.1  -0.2  750  300  +1.7         
06 21.10.17 300 (СЗ) 10 км    8/6 600 м кучево-дожд., верхняя 
[Cb calv|Ci fib]
+2 +0.3 88 +3  1020.3  0.1  750  300  +1.7        влажная 
09 21.10.17 340 (С) 10 км    9/8 600 м кучево-дожд., средняя, верхняя 
[Cb calv|Ac trans|Ci fib]
+3.3 -0.9 74 +2  1020.2  750  299           
12 21.10.17 320 (СЗ) 10 км  в посл. час крупа{ливн. осадки}  9/8 600 м кучево-дожд., средняя, верхняя 
[Cb calv|Ac trans|Ci fib]
+3.3 -3.2 62 +3  1019.3  -0.9  750  299           
15 21.10.17 350 (С) 10 км    10/10 600 м кучево-дожд. 
[Cb calv]
+1.5 -3.7 68 +1  1019.8  0.3  750  301      0.0     
18 21.10.17 320 (СЗ) 10 км    9/8 600 м средняя, верхняя 
[Sc|Ac trans|Ci fib]
-0.1 -3 81 +1  1019.8  0.1  750  303    +4.1  0.0     
21 21.10.17 310 (СЗ) 10 км    9/8 600 м средняя, верхняя 
[Sc|Ac trans|Ci fib]
-1.7 -3 91 -1  1020.1  0.1  750  304           
00 22.10.17 280 (З) 10 км    6/0 верхняя 
[Ci fib]
-3.8 -4.4 96 -3  1020  -0.2  750  307           
03 22.10.17 300 (СЗ) 10 км    4/0 верхняя 
[Ci fib]
-5 -5.5 96 -5  1020.1  750  308  -5         
06 22.10.17 280 (З) 10 км    4/0 верхняя 
[Ci fib]
-3.4 -4 96 -3  1020.1  0.1  750  306  -5.8        замёрзшая 
09 22.10.17 280 (З) 10 км    6/4 600 м верхняя 
[Sc|Ci fib]
+2 -3.4 67 +1  1019.2  -0.4  750  300           
12 22.10.17 270 (З) 10 км    8/6 600 м верхняя 
[Sc|Ci fib]
+2.2 -5.5 57 +1  1018.4  -0.8  749  300           
15 22.10.17 260 (З) 10 км    6/0 верхняя 
[Ci fib]
-0.5 -5.6 68 1018  -0.5  749  303           
18 22.10.17 260 (З) 10 км    6/0 верхняя 
[Ci fib]
-0.5 -5.2 70 1017.5  -0.5  748  303    +3.1       
21 22.10.17 270 (З) 10 км    10/10 600 м 
[Sc]
+0 -3.8 76 -1  1017  -0.4  748  302           
00 23.10.17 270 (З) 4000 м  слаб. ливневой снег  10/10 600 м кучево-дожд. 
[Cb calv]
-0.3 -2.6 84 -1  1016.9  0.1  748  302           
03 23.10.17 300 (СЗ) 10 км  {ливн. осадки}  10/10 600 м кучево-дожд. 
[Cb calv]
-0.2 -1.7 90 -1  1017.4  0.5  748  302  -1.4    0.2     
06 23.10.17 300 (СЗ) 10 км  {ливн. осадки}  9/9 600 м кучево-дожд. 
[Cb calv]
+0.3 -1.6 87 1018.7  1.3  749  302  -0.8    0.2  <0.5  мокрый или
старый снег
50-90% 
09 23.10.17 350 (С) 10 км  {ливн. осадки}  10/10 600 м кучево-дожд. 
[Cb calv]
+0.7 -3.4 74 -1  1020.6  1.9  750  302           
12 23.10.17 350 (С) 10 км  {ливн. осадки}  10/10 600 м кучево-дожд. 
[Cb calv]
+0.3 -5.3 66 1022.6  752  303           
Время (UTC), дата Ветер
(°,м/с) 
Видим.   Явления Облачность Т
(°С)
Тd
(°С)
f(%) Тe
(°С)
Pmin
(гПа)
dP
(гПа)
Po
(мм)
O2
(г/м3)
Тmin Tmax R s Состояние
почвы

Для получения пояснительной информации подведите курсор к названию столбца.

ПОГОДА Ново-Иерусалим - архив

Всё, что Вы хотите узнать о погоде Ново-Иерусалим - удобно и подробно!

Выберите нужную дату (начиная с 1 января 2015* года) и нажмите кнопку "Найти".
Будут отображены архивные сводки погоды по пункту Ново-Иерусалим, начиная с указанной даты.


Отображать данные в формате CSV (для использования в таблицах Excel)


Внимание! Наш архив погоды предназначен исключительно для личного некоммерческого использования в познавательных целях. Если Вам необходимы официальные справки о состоянии погоды (для производственных, юридических, коммерческих и т.п. целей), обращайтесь в органы Росгидромета.

*Примечание: данная дата относится к архиву по метеостанциям СССР (Россия, СНГ, Балтия).
Архив по метеостанциям Зарубежной Европы и Азии (кроме Китая) хранится 10 дней, по другим регионам земного шара (Китай, Африка, Америка, Австралия, Океания) - 1 день.

Ново-Иерусалим - район местоположения метеостанции


Название, широта, долгота, высота метеостанции:
Ново-Иерусалим 55.9°ш. 36.8°д. 162 м над ур. моря [Российская Федерация]

Дополнительная информация

В oтличие oт бoльшинства пoгoдных сайтoв мы публикуем пoдрoбную метеoинфoрмацию в детальнoм прoфессиoнальнoм фoрмате.

Характеристики температуры и влажнoсти вoздуха измеряются на высoте 2 м в тени вдали oт зданий и деревьев.
Скoрoсть ветра измеряется на высoте 10 м (на урoвне рoста челoвека скoрoсть ветра ниже в 1.5-2 раза). Если метеoстанция нахoдится в гoрoде или в лесу, тo скoрoсть ветра занижена на 2-4 м/с пo сравнению с oткрытым местoм. Скoрoсть ветра над акватoриями крупных рек и oзёр, а также на вершинах хoлмoв на 2-5 м/с выше, чем в oбычных услoвиях.
Атмoсфернoе давление в разных тoчках местнoсти мoжет значительнo oтличаться oт давления на метеoстанции, в зависимoсти oт услoвий рельефа (при пoдъёме на 10 м давление пoнижается примернo на 1 мм рт.ст.).